User: anonymous   Login
Location: Meriden
(44.0740°N, 93.3870°W)
Time: 14:25:08
(UTC-06:00)
Language:

Hamsat - Orbit

View from above orbital plane
View from above orbital plane
View from above satellite
View from above satellite

Ground track
Ground track

The orbit data is extracted from the following two-line orbital elements,

1 28650U 05017B   17022.15668407  .00000310  00000-0  38926-4 0  9999
2 28650  97.6335   1.6114 0022140 253.2686 106.6102 14.88542065634440
Epoch (UTC): 22 January 2017 03:45:37
Eccentricity: 0.0022140
inclination: 97.6335°
perigee height: 587 km
apogee height: 618 km
right ascension of ascending node: 1.6114°
argument of perigee: 253.2686°
revolutions per day: 14.88542065
mean anomaly at epoch: 106.6102°
orbit number at epoch: 63444

The dashed part of the orbit path shows where the satellite is in the earth's shadow,  

DLR